Location: Asheville, NC
(35.6000°N, 82.5500°W)
Time: 08:54:03
(UTC-05:00)

Tiangong 2 - Pass Details

Date: 10 February 2018
Orbit: 384 x 388 km, 42.8° (Epoch: 20 February)

Event Time Altitude Azimuth Distance (km) Brightness Sun altitude
Rises 18:27:59 0° 219° (SW) 2,247 5.9 -4.9°
Reaches altitude 10° 18:30:12 10° 207° (SSW) 1,396 4.5 -5.3°
Maximum altitude 18:32:58 29° 145° (SE) 740 2.3 -5.9°
Drops below altitude 10° 18:35:45 10° 83° (E) 1,400 3.2 -6.4°
Enters shadow 18:36:05 - 80° (E) 1,520 3.4 -6.5°
